FW6114 Weather Reports


time (UTC)temp
F
wind
direction
speed
knots
gust
knots
rain 1hr
in
rain 24hr
in
rain mn
in
humidity
%
barometer
mb
20260503054503 48 305 0.0 1.7 0.00 0.36 0.01 88 1013.0
20260503053044 47 322 0.0 2.6 0.00 0.36 0.01 89 1013.2
20260503051530 47 319 0.0 0.0 0.00 0.36 0.01 89 1013.0
20260503050024 47 306 0.0 0.0 0.00 0.36 0.01 90 1012.8
20260503044502 47 324 0.0 0.0 0.00 0.36 0.01 89 1012.9
20260503043037 47 324 0.0 0.0 0.00 0.36 0.01 89 1012.8
20260503041514 47 329 0.0 3.5 0.00 0.36 0.01 90 1012.9
20260503040048 48 326 0.0 0.0 0.00 0.36 0.01 88 1013.1
20260503034520 48 326 0.0 0.9 0.00 0.36 0.01 88 1013.4
20260503033102 48 336 0.0 0.9 0.00 0.36 0.01 89 1013.6
20260503031537 48 325 0.0 3.5 0.00 0.36 0.01 88 1013.5
20260503030013 48 315 0.0 0.0 0.00 0.36 0.01 89 1013.4
20260503024558 48 302 0.0 5.2 0.00 0.36 0.01 89 1013.5
20260503023025 48 325 0.0 2.6 0.00 0.36 0.01 90 1013.5
20260503021502 48 323 0.0 0.0 0.00 0.36 0.01 89 1013.6
20260503020044 49 323 0.0 0.0 0.00 0.36 0.01 89 1013.6
20260503014549 49 331 0.0 0.0 0.01 0.36 0.01 90 1013.8
20260503013034 49 317 0.0 0.0 0.01 0.36 0.01 90 1013.9
20260503011506 48 315 0.0 0.0 0.01 0.36 0.01 91 1014.1
20260503010048 48 305 0.0 0.0 0.01 0.36 0.01 90 1014.3
20260503004529 48 305 0.0 0.0 0.00 0.35 0.00 91 1014.4
20260503003021 48 332 0.0 0.0 0.00 0.35 0.00 91 1014.7
20260503001512 48 331 0.0 0.0 0.00 0.35 0.00 91 1014.8
20260503000052 47 330 0.0 0.0 0.00 0.35 0.00 90 1015.0
20260502234545 47 333 0.0 0.0 0.00 0.35 0.00 91 1015.1
20260502233036 47 17 0.0 0.0 0.00 0.35 0.00 91 1015.2
20260502231530 47 17 0.0 0.0 0.00 0.35 0.00 91 1015.3
20260502230027 47 17 0.0 0.0 0.00 0.35 0.00 92 1015.5
20260502224618 46 11 0.0 0.0 0.00 0.35 0.00 92 1015.6
20260502223040 46 11 0.0 0.0 0.00 0.35 0.00 89 1015.6
20260502221508 0 11 0.0 0.0 0.00 0.35 0.00 1015.5
20260502220048 47 40 0.0 0.0 0.01 0.35 0.35 89 1015.7
20260502214523 47 270 0.0 0.0 0.01 0.35 0.35 90 1015.8
20260502213021 47 265 0.0 0.0 0.02 0.35 0.35 90 1015.7
20260502211627 47 265 0.0 0.0 0.09 0.35 0.35 89 1015.7
20260502210038 46 265 0.0 0.0 0.20 0.35 0.35 88 1015.9
20260502204522 47 265 0.0 0.0 0.20 0.35 0.35 87 1015.6
20260502203104 46 76 0.0 8.7 0.19 0.35 0.34 86 1015.6
20260502201536 46 314 0.9 13.9 0.12 0.28 0.27 82 1016.1
20260502200010 50 315 0.0 0.0 0.00 0.16 0.15 89 1014.9
20260502194601 50 321 0.0 0.0 0.01 0.16 0.15 89 1014.0
20260502193043 49 321 0.0 0.0 0.10 0.16 0.15 88 1014.0
20260502191538 49 321 0.0 0.0 0.12 0.16 0.15 89 1013.8
20260502190040 49 339 0.0 0.0 0.14 0.21 0.15 89 1013.8
20260502184509 49 294 0.0 0.0 0.14 0.20 0.14 87 1014.1
20260502183057 49 51 0.0 0.0 0.05 0.11 0.05 84 1014.8
20260502181531 50 65 0.0 12.2 0.03 0.09 0.03 76 1014.2
20260502163102 58 288 0.0 5.2 0.00 0.14 0.00 68 1014.3
20260502161531 59 228 2.6 10.4 0.00 0.14 0.00 68 1014.5
20260502151539 58 290 2.6 8.7 0.00 0.17 0.00 68 1015.0
20260502123013 57 302 2.6 13.0 0.00 0.57 0.00 75 1017.1
20260502121546 58 264 2.6 8.7 0.00 0.57 0.00 71 1017.3
20260502114538 58 274 1.7 10.4 0.00 0.64 0.00 71 1017.2
20260502113032 58 230 4.3 12.2 0.00 0.64 0.00 73 1017.4
20260502111523 57 304 2.6 10.4 0.00 0.64 0.00 73 1017.4
20260502110016 57 238 4.3 14.8 0.00 0.64 0.00 73 1017.4
20260502104520 56 261 2.6 11.3 0.00 0.64 0.00 75 1017.5
20260502103053 56 279 1.7 11.3 0.00 0.64 0.00 75 1017.6
20260502101543 56 291 0.0 7.8 0.00 0.64 0.00 77 1017.7
20260502100106 55 293 0.9 6.1 0.00 0.64 0.00 76 1018.0
20260502070051 51 305 0.0 6.1 0.00 0.64 0.00 84 1018.8
20260502064505 51 299 0.9 7.0 0.00 0.64 0.00 84 1018.9